Key West, FL

11:39 PM EDT on August 25, 2016 (GMT -0400)
Key West International

Weather History for KEYW - October, 2011

Change the Weather History Date:

Monday, October 24, 2011

  Actual Average Record
Temperature  
Mean Temperature 77 °F 79 °F  
Max Temperature 80 °F 83 °F 89 °F (1990)
Min Temperature 74 °F 75 °F 64 °F (1923)
Degree Days  
Heating Degree Days 0 0  
Month to date heating degree days 0 0  
Since 1 July heating degree days 0 0  
Cooling Degree Days 12 14  
Month to date cooling degree days 354 378  
Year to date cooling degree days 4415 4113  
Growing Degree Days 26 (Base 50)    
Moisture  
Dew Point 66 °F    
Average Humidity 72    
Maximum Humidity 84    
Minimum Humidity 60    
Precipitation  
Precipitation 0.00 in 0.13 in 1.60 in (1943)
Month to date precipitation 16.90 4.07  
Year to date precipitation 41.86 34.45  
Snow  
Snow 0.00 in - - ()
Month to date snowfall 0.0  
Since 1 July snowfall 0.0  
Since 1 September snowfall 0.0  
Snow Depth 0.00 in    
Sea Level Pressure  
Sea Level Pressure 30.02 in    
Wind  
Wind Speed 12 mph (North)    
Max Wind Speed 18 mph    
Max Gust Speed 25 mph    
Visibility 10 miles    
Events      
T = Trace of Precipitation, MM = Missing Value Source: NWS Daily Summary

Daily Weather History Graph

Daily Weather History Graph

Search for Another Location

Airport or City:

Trip Planner

Search our weather history database for the weather conditions in past years. The results will help you decide how hot, cold, wet, or windy it might be!

Date:

Astronomy

Oct. 24, 2011 Rise Set
Actual Time 7:29 AM EDT 6:52 PM EDT
Civil Twilight 7:06 AM EDT 7:16 PM EDT
Nautical Twilight 6:39 AM EDT 7:42 PM EDT
Astronomical Twilight 6:12 AM EDT 8:09 PM EDT
Moon 4:59 AM EDT (10/24) 5:08 PM EDT (10/24)
Length of Visible Light 12h 09m
Length of Day
11h 23m
Waning Crescent, 7% of the Moon is Illuminated
Oct 24
Waning Crescent
Oct 26
New
Nov 2
First Quarter
Nov 10
Full
Nov 18
Last Quarter

Hourly Weather History & Observations

Time (EDT) Temp. Dew Point Humidity Pressure Visibility Wind Dir Wind Speed Gust Speed Precip Events Conditions
12:53 AM 77.0 °F 71.1 °F 82% 29.99 in 10.0 mi NNE 8.1 mph - N/A   Mostly Cloudy
1:53 AM 75.9 °F 69.1 °F 79% 29.99 in 10.0 mi NE 9.2 mph - N/A   Mostly Cloudy
2:08 AM 75.2 °F 68.0 °F 78% 29.99 in 10.0 mi NNE 9.2 mph - N/A   Scattered Clouds
2:53 AM 75.0 °F 69.1 °F 82% 29.98 in 10.0 mi North 6.9 mph - N/A   Clear
3:53 AM 75.0 °F 68.0 °F 79% 29.97 in 10.0 mi NNE 9.2 mph - N/A   Clear
4:53 AM 73.9 °F 68.0 °F 82% 29.96 in 10.0 mi North 11.5 mph - N/A   Clear
5:53 AM 75.0 °F 66.0 °F 73% 29.96 in 10.0 mi North 10.4 mph - N/A   Clear
6:53 AM 75.0 °F 64.9 °F 71% 29.98 in 10.0 mi North 9.2 mph - N/A   Clear
7:53 AM 73.9 °F 66.9 °F 79% 30.01 in 10.0 mi North 10.4 mph 16.1 mph N/A   Clear
8:53 AM 75.0 °F 66.9 °F 76% 30.04 in 10.0 mi North 11.5 mph - N/A   Overcast
9:53 AM 75.9 °F 68.0 °F 76% 30.06 in 10.0 mi North 10.4 mph - N/A   Overcast
10:53 AM 75.2 °F 66.2 °F 73% 30.07 in 10.0 mi North 11.5 mph - N/A   Overcast
11:53 AM 78.1 °F 64.9 °F 64% 30.05 in 10.0 mi North 15.0 mph 24.2 mph N/A   Scattered Clouds
12:53 PM 79.0 °F 64.9 °F 62% 30.04 in 10.0 mi North 15.0 mph 23.0 mph N/A   Clear
1:53 PM 79.0 °F 64.0 °F 60% 30.03 in 10.0 mi North 13.8 mph 21.9 mph N/A   Mostly Cloudy
2:53 PM 79.0 °F 64.9 °F 62% 30.01 in 10.0 mi North 13.8 mph 20.7 mph N/A   Scattered Clouds
3:53 PM 78.1 °F 64.9 °F 64% 30.01 in 10.0 mi North 13.8 mph - N/A   Clear
4:53 PM 78.1 °F 64.9 °F 64% 30.00 in 10.0 mi North 11.5 mph 21.9 mph N/A   Clear
5:53 PM 77.0 °F 63.0 °F 62% 30.00 in 10.0 mi North 13.8 mph - N/A   Clear
6:53 PM 75.9 °F 64.0 °F 67% 30.01 in 10.0 mi North 11.5 mph 18.4 mph N/A   Clear
7:53 PM 75.9 °F 64.9 °F 69% 30.03 in 10.0 mi North 9.2 mph - N/A   Clear
8:53 PM 75.9 °F 66.0 °F 71% 30.05 in 10.0 mi North 10.4 mph - N/A   Clear
9:53 PM 75.2 °F 66.2 °F 73% 30.06 in 10.0 mi North 11.5 mph - N/A   Partly Cloudy
10:53 PM 75.9 °F 66.9 °F 74% 30.06 in 10.0 mi NNE 13.8 mph 19.6 mph N/A   Partly Cloudy
11:53 PM 75.2 °F 62.6 °F 65% 30.06 in 10.0 mi NNE 12.7 mph - N/A   Clear